,year.,month.,day.,hour.,Air temperature.�C,Relative humidity (avg).%,Relative humidity (min).%,Relative humidity (max).%,Solar radiation received at surface.W m-2,Outgoing solar radiation.W m-2,Solar radiation received at bed.W m-2,Net radiation.W m-2,Bed heat flux.W m-2,Wind speed (average).ms-1,Wind speed (min).ms-1,Wind speed (max).ms-1,Precipitation.mm,Water temperature.�C,Bed temperature (5 cm).�C,Bed temperature (20 cm).�C,Bed temperature (40 cm).�C
1,2013,6,20,0,7.765,83,80.8,84.7,3.965,3.965,3.965,-30.9125,15.69,0.0375,0,0.625,0,,13.0225,12.95,12.555
2,2013,6,20,1,7.625,85.1,84.2,85.9,3.96575,3.96575,3.96575,-24.4925,16.525,0.00275,0,0.25,0,,12.7125,12.7625,12.5325
3,2013,6,20,2,7.695,85.65,84.9,86.2,4.00075,3.966,3.966,-21.14,15.505,0.02575,0,0.5,0,,12.455,12.57,12.495
4,2013,6,20,3,7.6975,86.775,86,87.7,6.6645,4.1605,5.18375,-16.075,15.91,0.00175,0,0.125,0,,12.2275,12.385,12.445
5,2013,6,20,4,8.1725,87.35,86.8,87.9,15.0325,5.084,9.99,-5.3925,13.6625,0.02275,0,0.625,0,,12.0375,12.21,12.385
6,2013,6,20,5,9.135,85.9,84.1,87.3,28.1025,6.55875,17.765,9.33825,10.765,0,0,0,0,,11.9225,12.06,12.31
7,2013,6,20,6,10.45,81.375,79.2,84.1,50.8075,9.1325,32.085,18.25475,6.112,0.0455,0,0.5,0,,11.8625,11.9275,12.225
8,2013,6,20,7,11.0125,82.675,80.2,84.9,74.475,11.825,47.4975,33.1425,2.658,0.00825,0,0.5,0,,11.88,11.8375,12.145
9,2013,6,20,8,12.61,74.975,71.3,80.7,121.725,18.9175,96.3475,61.36,-4.72225,0.06925,0,0.5,0,,12.01,11.8025,12.07
10,2013,6,20,9,13.41,73.825,71.4,75.7,110.225,15.99,68.655,70.5825,-3.96525,0.11075,0,0.875,0,,12.1375,11.8,12
11,2013,6,20,10,14.545,69.035,65.94,72.1,90.05,13.3025,54.235,78.87,-5.7815,0.13975,0,1.25,0,,12.295,11.845,11.955
12,2013,6,20,11,14.585,68.555,65.14,71.6,64.8925,10.58,40.48,54.9325,-5.593,0.0715,0,1,0,,12.4375,11.9075,11.92
13,2013,6,20,12,14.98,66.21,62.39,71.4,102.75,14.2875,62.3725,88.5625,-6.5475,0.14,0,1.5,0,,12.55,11.9775,11.9025
14,2013,6,20,13,16.4375,60.49,55.55,65.94,162.725,19.855,85.675,139.625,-11.9125,0.15425,0,1.125,0,,12.745,12.055,11.9
15,2013,6,20,14,17.5425,59.285,53.07,64.67,190,17.81,71.7975,139.5,-16.545,0.1825,0,0.875,0,,13.05,12.1725,11.9
16,2013,6,20,15,17.0875,62.7925,59.98,66.34,80.275,12.06,44.725,84.8,-14.1825,0.04725,0,0.875,0,,13.315,12.3375,11.92
17,2013,6,20,16,16.8825,64.2675,61.92,67.41,63.7425,10.33,37.2875,59.4625,-13.355,0.2295,0,0.75,0,,13.5,12.5,11.955
18,2013,6,20,17,15.8075,70.3425,65.27,73.8,43.795,8.06275,26.8925,7.466,-10.89,0.2045,0,0.75,0,,13.6275,12.64,12.0075
19,2013,6,20,18,14.3975,77.775,73.8,80.3,18.8025,5.4345,12.495,-10.818,-7.13125,0.01575,0,0.375,0,,13.6675,12.75,12.0675
20,2013,6,20,19,13.5425,81.425,79.1,83.1,10.65,4.64175,7.50075,-17.51,-4.97475,0.0015,0,0.25,0,,13.635,12.815,12.1275
21,2013,6,20,20,12.69,83.975,83,85.8,6.51325,4.13925,5.03675,-21.2225,-3.088,0.00025,0,0.125,0,,13.585,12.85,12.1825
22,2013,6,20,21,12.0525,86.1,85.2,87.1,3.965,3.965,3.965,-17.1275,-1.00525,0,0,0,0,,13.5,12.85,12.235
23,2013,6,20,22,11.5275,87.45,86.8,88.1,3.965,3.965,3.965,-10.11925,0.49775,0,0,0,0,,13.3875,12.825,12.27
24,2013,6,20,23,11.5925,86.45,85.7,87.5,3.965,3.965,3.965,-4.859,1.0885,0.00975,0,0.375,0,,13.28,12.785,12.295
25,2013,6,21,0,11.75,86.125,85.8,86.6,3.965,3.965,3.965,-3.8505,1.9105,0.00375,0,0.25,0,,13.175,12.73,12.31
26,2013,6,21,1,11.7275,86.175,85.8,86.7,3.965,3.965,3.965,-3.3475,2.63225,0.01175,0,0.5,0,,13.0675,12.6725,12.32
27,2013,6,21,2,11.785,86.4,86,87,3.965,3.965,3.965,-5.80975,3.054,0,0,0,0,,12.96,12.605,12.31
28,2013,6,21,3,11.5775,88.375,86.9,90.3,4.604,3.965,4.11025,-9.07225,3.978,0,0,0,0,,12.845,12.5325,12.305
29,2013,6,21,4,11.4475,91.2,90.1,92,9.087,4.39475,6.6135,-2.99275,4.0725,0,0,0,0.4,,12.7425,12.46,12.2875
30,2013,6,21,5,11.7,92.125,91.7,92.5,14.3575,4.9825,10.0075,2.79575,3.01075,0,0,0,0,,12.665,12.3925,12.2675
31,2013,6,21,6,11.955,92.75,92.4,93,31.2525,6.7695,20.68,18.235,1.49525,0,0,0,0,,12.625,12.33,12.2425
32,2013,6,21,7,12.345,93,92.8,93.2,30.2475,6.64325,20.0975,17.705,0.56525,0.00025,0,0.125,0,,12.62,12.285,12.2125
33,2013,6,21,8,12.705,93.125,92.7,93.4,54.365,9.2575,35.3575,37.5575,-1.167,0.00625,0,0.25,0,,12.635,12.26,12.1825
34,2013,6,21,9,13.2275,92.85,92.3,93.3,83.8325,12.2275,54.015,62.3775,-3.272,0.014,0,0.375,0,,12.69,12.25,12.1575
35,2013,6,21,10,14.055,91,88.7,92.5,152.5,19.34,94.45,128.45,-8.82,0.09475,0,0.875,0,,12.8525,12.2775,12.1375
36,2013,6,21,11,14.7,86.575,84.8,88.7,108.9,14.925,67.025,95.1575,-10.1025,0.14425,0,0.75,0,,13.085,12.3525,12.125
37,2013,6,21,12,15.095,84.65,83.9,85.6,53.705,9.19125,33.265,43.4275,-8.12,0.05725,0,0.625,0,,13.23,12.455,12.1225
38,2013,6,21,13,15.5825,82.975,76.5,85.9,99.445,13.3425,58.5275,88.945,-10.02,0.041,0,0.5,0,,13.3475,12.5475,12.1425
39,2013,6,21,14,16.1925,78.95,76.9,80,60.8,9.81,34.495,58.0075,-11.665,0.09725,0,0.75,0,,13.5325,12.6475,12.1625
40,2013,6,21,15,16.3375,79.2,75.1,81.4,51.29,9.2275,31.035,49.015,-11.9425,0.01875,0,0.5,0,,13.69,12.765,12.195
41,2013,6,21,16,16.8525,71.8925,68.09,77.3,60.68,9.925,36.6975,55.8925,-13.755,0.1265,0,1.125,0,,13.8725,12.885,12.2375
42,2013,6,21,17,16.3125,73.4,70.3,75.9,35.4425,7.28675,22.12,28.7925,-12.1375,0.0215,0,0.375,0,,14.025,13.01,12.2875
43,2013,6,21,18,15.8475,74.6,72.2,76.6,19.1825,5.59625,12.1325,7.70075,-10.4975,0.03225,0,0.5,0,,14.125,13.125,12.345
44,2013,6,21,19,14.5975,74.15,71,76.7,11.6775,4.66375,7.7075,-9.89425,-6.68575,0.184,0,0.875,0,,14.14,13.2175,12.405
45,2013,6,21,20,13.6925,67.8525,63.86,73.1,6.276,4.1355,4.82,-14.6125,-2.59025,0.1325,0,0.875,0,,14.055,13.26,12.4675
46,2013,6,21,21,12.2125,74.075,71.7,77,3.965,3.965,3.965,-13.5275,0.51,0.06525,0,0.375,0,,13.91,13.2525,12.52
47,2013,6,21,22,11.63,76.525,73,79.3,3.965,3.965,3.965,-13.5575,2.2555,0.0045,0,0.375,0,,13.7425,13.2075,12.5625
48,2013,6,21,23,11.045,80.225,78.6,81.7,3.965,3.965,3.965,-18.0075,4.1175,0.0675,0,0.75,0,,13.57,13.13,12.5875
49,2013,6,22,0,10.795,86.125,80,89.6,3.965,3.965,3.965,-21.155,5.5345,0.0615,0,1.125,0,,13.38,13.04,12.6
50,2013,6,22,1,10.47,90.3,89.5,91.1,3.965,3.965,3.965,-15.23,6.016,0.02175,0,0.5,0,,13.21,12.935,12.5975
51,2013,6,22,2,10.4675,91.35,90.9,91.7,3.965,3.965,3.965,-13.8825,6.37125,0.07625,0,1.125,0,,13.055,12.8275,12.585
52,2013,6,22,3,10.5675,88,84,91.1,4.19825,3.965,3.965,-21.1025,7.108,0.12225,0,1,0,,12.91,12.72,12.5575
53,2013,6,22,4,10.43,83.875,82.9,85,11.1485,4.6265,7.80875,-15.6675,8,0.043,0,0.625,0,,12.7475,12.6075,12.525
54,2013,6,22,5,10.535,85.4,84.5,86.1,25.2675,6.182,16.3125,-3.13,6.87875,0.05225,0,0.625,0,,12.6175,12.4975,12.485
55,2013,6,22,6,11.3025,82.2,80.8,85.9,52.8825,9.625,32.7125,28.8925,3.731,0.04475,0,0.875,0,,12.5525,12.4,12.4375
56,2013,6,22,7,11.7575,82.425,81.1,83.7,70.0675,10.995,42.815,49.7575,2.1195,0.06125,0,0.875,0,,12.5275,12.325,12.3875
57,2013,6,22,8,11.9,82.925,81.4,83.8,59.2875,9.665,36.21,46.29,1.56275,0.0625,0,0.625,0,,12.5275,12.275,12.3425
58,2013,6,22,9,12.4725,80.975,78.1,82.8,69.785,10.81,42.875,54.1175,0.13325,0.14325,0,0.875,0,,12.535,12.2475,12.3
59,2013,6,22,10,13.49,79.9,74.5,84.6,131.55,18.4325,85.2125,68.2475,-4.78575,0.15125,0,0.75,0,,12.625,12.235,12.2625
60,2013,6,22,11,13.7775,75.6,71.9,82.6,54.78,9.5125,35.58,10.6825,-3.619,0.14275,0,1,0,,12.7625,12.265,12.2275
61,2013,6,22,12,12.5725,87.95,82.8,90.4,70.6475,11.085,45.1875,41.39,-2.35,0.0125,0,0.625,0.8,,12.8075,12.315,12.215
62,2013,6,22,13,12.8925,88.725,85.8,90.9,127.85,16.4775,73.6375,76.9425,-8.12725,0.096,0,0.875,0,,12.9275,12.35,12.205
63,2013,6,22,14,11.61,87.8,83.2,91.3,35.31,7.24275,23.51,3.6725,-3.38525,0.1505,0,1.375,3.4,,13.0375,12.415,12.205
64,2013,6,22,15,12.055,91.975,91.2,92.6,86.61,13.41,55.045,216.935,-7.22,0.03325,0,0.5,0,,13.0875,12.475,12.21
65,2013,6,22,16,12.5375,90.525,88.2,92.3,65.7975,11.4675,42.165,26.62,-10.35,0.06725,0,0.625,0,,13.275,12.5425,12.2225
66,2013,6,22,17,12.535,84.975,82.8,88.7,47.2825,8.856,30.29,24.3355,-9.105,0.02875,0,0.5,0,,13.435,12.6425,12.24
67,2013,6,22,18,12.2025,84.8,83.6,85.7,28.765,6.57975,18.1475,8.50175,-7.65,0,0,0,0,,13.5425,12.75,12.2725
68,2013,6,22,19,11.805,85.2,83.2,86.7,10.24525,4.435,7.0545,-6.22725,-6.5485,0.0125,0,0.5,0,,13.615,12.84,12.3075
69,2013,6,22,20,11.07,87.05,85.1,90,4.6005,3.965,3.965,-21.325,-4.29975,0.00025,0,0.125,0,,13.6375,12.9025,12.355
70,2013,6,22,21,10.52,90.85,89.7,91.6,3.965,3.965,3.965,-21.44,-1.91175,0.00775,0,0.25,0,,13.5975,12.94,12.395
71,2013,6,22,22,9.8875,92.05,91.3,92.7,3.96575,3.96575,3.96575,-20.3725,0.728,0.004,0,0.125,0,,13.5025,12.9375,12.435
72,2013,6,22,23,9.1525,92.525,92.2,92.8,3.966,3.966,3.966,-31.505,3.60925,0.0205,0,0.375,0,,13.3525,12.9025,12.4625
73,2013,6,23,0,7.735,92.775,92.2,93.4,3.966,3.966,3.966,-31.5725,7.26225,0.03125,0,0.625,0,,13.12,12.8275,12.4825
74,2013,6,23,1,7.695,93.525,92.8,94.1,3.966,3.966,3.966,-21.035,9.5775,0.03325,0,0.75,0.2,,12.87,12.71,12.4875
75,2013,6,23,2,8.585,94,93.6,94.2,3.966,3.966,3.966,-14.65,10.7775,0.0255,0,0.625,2.8,,12.6325,12.5725,12.475
76,2013,6,23,3,9.055,94.225,94,94.5,5.69375,4.0375,4.65975,-8.906,10.405,0.0065,0,0.375,0.2,,12.415,12.42,12.445
77,2013,6,23,4,9.71,94.525,94.2,94.9,17.7525,5.33175,12.2525,1.27575,9.4525,0.12125,0,1.375,0.4,,12.24,12.2675,12.4
78,2013,6,23,5,10.4775,94.575,94.4,94.8,18.0775,5.25625,12.355,4.137,8.1225,0.149,0,0.75,0.2,,12.1025,12.1225,12.3375
79,2013,6,23,6,10.9025,94.575,94.2,94.9,48.635,8.26,23.89,30.4975,6.23225,0.1315,0,1,0,,12.0175,12.005,12.275
80,2013,6,23,7,10.9675,94.125,93.6,94.6,52.54,8.7525,20.595,29.16,4.80075,0.25325,0,1.125,0,,11.98,11.91,12.21
81,2013,6,23,8,11.47,93.2,91.1,94.2,80.05,11.4025,31.355,51.5425,2.38925,0.23075,0,1.375,0,,11.9775,11.8475,12.145
82,2013,6,23,9,11.7275,91.5,90.5,92.6,64.57,9.8175,25.8625,40.13,0.7405,0.17075,0,1.25,1,,12.0275,11.8125,12.0875
83,2013,6,23,10,11.3575,92.075,91.3,92.9,52.1875,8.49275,20.475,28.51925,0.1135,0.29675,0,1.125,2.4,,12.0925,11.8075,12.035
84,2013,6,23,11,11.59,92.275,91.5,92.9,54.205,8.67575,20.09,27.2575,-1.31225,0.42725,0,1.75,2,,12.1675,11.8225,11.9975
85,2013,6,23,12,11.4525,91.9,90.6,93,102.5925,12.995,31.745,62.3775,-1.818,0.71575,0,2.625,1,,12.2425,11.85,11.9675
86,2013,6,23,13,10.9775,89.5,88.1,91.4,70.0175,9.975,20.45,25.597,-2.62225,0.94775,0,4.125,0.2,,12.345,11.8975,11.95
87,2013,6,23,14,10.8425,87.475,85.2,89.8,87.175,11.5,23.0225,44.84,-2.12725,0.90975,0,3.25,0,,12.4175,11.955,11.9475
88,2013,6,23,15,11.24,84.3,82.7,87.8,102,12.665,25.14,74.1875,-4.00875,0.92,0.125,2.75,0,,12.5025,11.9975,11.94
89,2013,6,23,16,10.83,85.625,82.5,88.1,70.0575,9.7575,18.105,25.6875,-4.35775,0.7705,0,3,0,,12.6075,12.06,11.9425
90,2013,6,23,17,10.5125,87.55,85.8,88.7,52.335,8.3275,14.62,13.6325,-2.43325,0.67875,0,2.25,0,,12.6825,12.1325,11.9625
91,2013,6,23,18,10.02,88.675,86.7,89.6,54.505,8.4275,14.9,12.573,-0.37975,0.79825,0,2.75,0.4,,12.6725,12.18,11.985
92,2013,6,23,19,9.5575,87.025,86.1,88.1,32.885,6.44075,10.065,-9.7905,2.281,1.00425,0,3.375,0.2,,12.6025,12.185,12.005
93,2013,6,23,20,9.225,86.1,84.8,87.6,9.13775,4.32025,4.69825,-29.4875,5.99125,0.9715,0,3.625,0,,12.45,12.1475,12.0175
94,2013,6,23,21,9.015,85.925,84.8,86.9,3.966,3.966,3.966,-30.09,9.8575,0.79725,0,2.875,0,,12.215,12.0625,12.025
95,2013,6,23,22,8.915,83.425,81.4,85.1,3.966,3.966,3.966,-32.82,12.455,1.0975,0,3.125,0,,11.9325,11.93,12.015
96,2013,6,23,23,8.61,83.4,81.8,84.9,3.966,3.966,3.966,-13.3525,13.76,0.77375,0,3.25,0,,11.6475,11.76,11.985
97,2013,6,24,0,8.29,82.275,80.6,83.6,3.966,3.966,3.966,-10.23,14.8875,0.726,0,2.5,0,,11.375,11.5725,11.94
98,2013,6,24,1,8.125,81.525,80.6,82.6,3.966,3.966,3.966,-9.99,14.865,0.61325,0,2.375,0,,11.12,11.3775,11.875
99,2013,6,24,2,8.02,82.625,81.1,83.8,3.966,3.966,3.966,-12.1625,15.44,0.479,0,1.875,0,,10.885,11.1875,11.8
100,2013,6,24,3,7.9775,82.825,81.6,84.3,5.3855,3.966,3.966,-10.94025,15.36,0.4275,0,1.75,0,,10.6675,11.01,11.7125
101,2013,6,24,4,8.075,81.825,80.8,82.9,8.9375,4.26875,4.8345,-2.89,15.0775,0.3745,0,1.375,0,,10.475,10.835,11.6175
102,2013,6,24,5,8.095,80.6,79.4,82,14.6275,4.917,6.57125,2.64475,14.15,0.31075,0,1.625,0,,10.31,10.675,11.52
103,2013,6,24,6,8.5775,77.75,75.4,80.6,51.48,8.5725,18.71,36.595,12.3,0.46425,0,1.625,0,,10.185,10.525,11.4175
104,2013,6,24,7,9.095,75.4,72.7,78.1,77.935,10.91,26.2925,58.99,9.89,0.51075,0,2.125,0,,10.1275,10.405,11.315
105,2013,6,24,8,9.88,72.275,69.25,76.3,109.95,14.5225,41.5725,90.875,6.42475,0.4455,0,1.625,0,,10.1425,10.3225,11.22
106,2013,6,24,9,9.8,74.9,70.7,79.1,91.7,12.985,34.18,52.0025,3.37825,0.42775,0,1.5,0,,10.23,10.2825,11.13
107,2013,6,24,10,10.61,74.3,68.38,80.4,163.525,21.8525,60.3425,61.455,-3.14375,0.5695,0,1.5,0,,10.4,10.2925,11.05
108,2013,6,24,11,11.8225,66.77,60.86,73.7,136.825,21.8225,65.1075,63.115,-12.34,0.5825,0,1.75,0,,10.7575,10.36,10.9775
109,2013,6,24,12,11.4475,68.73,62.46,74.1,111.525,14.5825,42.79,77.575,-13.705,0.799,0,2.125,0,,11.2275,10.5525,10.9475
110,2013,6,24,13,11.5,71.2925,60.05,81.4,140.475,17.595,51.3875,82.6725,-15.26,0.67575,0,1.875,0,,11.6025,10.785,10.945
111,2013,6,24,14,11.275,68.1725,61.66,77.1,109.125,13.715,39.45,14.6825,-16.89,0.657,0,2,0,,12,11.035,10.975
112,2013,6,24,15,11.83,67.9125,60.46,76.2,80.8575,11.44,29.0075,39.49,-15.535,0.54825,0,2,0,,12.3225,11.285,11.0225
113,2013,6,24,16,10.7975,75.125,65.89,81.6,76.1025,11.585,27.8225,13.4475,-13.545,0.49475,0,1.5,0,,12.5525,11.5125,11.105
114,2013,6,24,17,11.1325,68.89,64.35,75.5,53.7825,9.4425,20.2425,-21.32825,-11.265,0.52925,0,2.625,0,,12.705,11.7075,11.1875
115,2013,6,24,18,10.84,65.4825,62.07,68.7,26.2225,6.193,11.74,-36.54725,-7.7245,0.57675,0,1.375,0,,12.7775,11.8525,11.2725
116,2013,6,24,19,10.61,63.9625,60.32,68.84,13.515,5.04675,7.49575,-15.9875,-3.04775,0.463,0,1.625,0,,12.7325,11.9425,11.3525
117,2013,6,24,20,9.2275,73.2275,67.23,79.6,6.7455,4.10875,4.76225,-27.455,1.16875,0.20575,0,1.375,0,,12.5925,11.9575,11.4275
118,2013,6,24,21,7.397,82.55,79.2,85.8,4.06325,3.966,3.966,-36.1425,5.07975,0.00825,0,0.25,0,,12.3625,11.91,11.48
119,2013,6,24,22,5.61575,87.325,85.7,88.9,3.966,3.966,3.966,-40.01,8.5775,0,0,0,0,,12.0725,11.8225,11.525
120,2013,6,24,23,4.877,89.45,88.4,90.6,3.966,3.966,3.966,-27.56,11.085,0.047,0,0.625,0,,11.78,11.6975,11.5475
121,2013,6,25,0,4.88775,90.075,89.6,90.7,3.966,3.966,3.966,-36.505,12.8075,0.006,0,0.25,0,,11.4975,11.545,11.55
122,2013,6,25,1,4.4125,91.1,90.5,91.6,3.96675,3.96675,3.96675,-29.0625,14.53,0.026,0,0.5,0,,11.19,11.365,11.5325
123,2013,6,25,2,4.55475,91.45,91,91.9,4.08825,3.967,3.967,-26.185,15.18,0.01025,0,0.375,0,,10.915,11.175,11.495
124,2013,6,25,3,4.78525,91.85,91.4,92.3,6.74025,4.0625,5.10975,-20.5075,15.54,0,0,0,0,,10.66,10.985,11.44
125,2013,6,25,4,5.35475,92,91.6,92.3,17.05,5.2195,11.3975,-5.86475,14.815,0,0,0,0,,10.445,10.8025,11.3775
126,2013,6,25,5,6.20225,91.75,91.4,92.2,31.3075,6.71975,20.005,8.46375,13.275,0,0,0,0,,10.2775,10.64,11.3
127,2013,6,25,6,7.7125,89.8,85.3,91.8,57.3725,9.8375,36.55,31.9675,10.3575,0,0,0,0,,10.1925,10.495,11.22
128,2013,6,25,7,9.4275,84.15,83.1,85.9,51.41,8.68,31.8275,39.385,7.38125,0,0,0,0,,10.175,10.385,11.1275
129,2013,6,25,8,10.9475,74.46,66.57,83.2,120.925,16.3625,81.475,96.075,3.111,0.21425,0,1,0,,10.235,10.32,11.0375
130,2013,6,25,9,11.4575,70.6375,67.91,72.7,123.05,15.8275,75.42,99.18,-0.95375,0.26425,0,1,0,,10.3725,10.29,10.95
131,2013,6,25,10,11.3625,70.97,64.56,75.3,109.925,14.715,68.795,69.825,-2.96625,0.075,0,0.75,0,,10.55,10.3275,10.8875
132,2013,6,25,11,12.28,65.34,61.87,70.7,94.375,12.84,57.5075,80.5925,-4.8075,0.205,0,0.875,0,,10.75,10.4,10.845
133,2013,6,25,12,12.7825,62.01,58.65,65.22,138.775,17.5875,84.7025,122.225,-7.32275,0.44675,0,1.25,0,,10.9625,10.4975,10.815
134,2013,6,25,13,13.51,59.0875,56.1,63.33,128.85,16.5625,78.3375,113.725,-11.7225,0.30225,0,1.125,0,,11.25,10.6225,10.81
135,2013,6,25,14,13.955,59.1425,55.08,62.79,111.95,14.025,62.53,98.875,-12.67,0.092,0,0.75,0,,11.545,10.785,10.8225
136,2013,6,25,15,14.3775,57.5525,51.67,62.99,98.1,13.855,58.4125,103.175,-13.525,0.171,0,1,0,,11.8225,10.9675,10.845
137,2013,6,25,16,14.5625,59.1725,54.55,63.73,68.495,10.77,40.825,60.905,-13.685,0.16425,0,0.875,0,,12.0725,11.1475,10.8875
138,2013,6,25,17,14.0625,65.4525,60.31,71.1,36.7725,7.18875,22.2225,29.0575,-12.7075,0.0145,0,0.75,0,,12.2825,11.325,10.945
139,2013,6,25,18,13.6275,71.0675,67.68,75.3,20.03,5.42225,12.6075,12.588,-11.23,0,0,0,0,,12.435,11.49,11.015
140,2013,6,25,19,13.075,77.2,74.8,79.9,13.1525,4.80725,8.73225,3.942,-9.4875,0,0,0,0,,12.53,11.625,11.09
141,2013,6,25,20,12.125,79.825,78.1,82.9,5.816,3.97225,4.62025,-8.653,-7.27775,0,0,0,0,,12.575,11.735,11.1725
142,2013,6,25,21,11.075,87.55,83,89.8,3.965,3.965,3.965,-18.1325,-4.9435,0,0,0,0,,12.5525,11.805,11.245
143,2013,6,25,22,9.82,90.325,89.5,91.4,3.965,3.965,3.965,-25.345,-1.8525,0,0,0,0,,12.4725,11.815,11.295
144,2013,6,25,23,9.1775,91.8,91,92.4,3.96575,3.96575,3.96575,-16.005,0.558,0,0,0,0,,12.3325,11.8,11.3375
145,2013,6,26,0,8.965,92.15,91.9,92.4,3.966,3.966,3.966,-21.99,2.17675,0,0,0,0,,12.1975,11.76,11.38
146,2013,6,26,1,7.845,92.375,92,92.8,3.966,3.966,3.966,-33.1575,5.5105,0,0,0,0,,12.01,11.69,11.4025
147,2013,6,26,2,6.6605,92.75,91.9,93.4,4.087,3.966,3.966,-28.8325,8.525,0.0185,0,0.5,0,,11.755,11.59,11.4175
148,2013,6,26,3,7.4735,93.8,93.1,94.5,6.5,4.085,5.1905,-13.68,8.7,0.2255,0,1.5,0,,11.54,11.475,11.42
149,2013,6,26,4,9.0675,93.225,91.4,94.4,11.45275,4.60275,7.97725,-11.955,7.635,0.3425,0,1.5,0,,11.4025,11.3625,11.4125
150,2013,6,26,5,9.8975,86.725,80,91.6,39.6625,8.10975,26.255,0.82275,6.318,0.42125,0,1.375,0,,11.2925,11.25,11.3825
151,2013,6,26,6,11.1925,75.25,73.1,80.3,63.795,13.14,42.0125,29.605,3.779,0.5805,0,1.5,0,,11.26,11.16,11.3525
152,2013,6,26,7,11.51,70.65,65.43,74.9,92.95,13.1075,55.7275,70.065,2.33975,0.448,0,1.375,0,,11.2625,11.1,11.305
153,2013,6,26,8,11.8975,68.19,63.41,72.1,84.2875,12.03,51.0125,66.6075,0.438,0.33125,0,1.375,0,,11.295,11.0675,11.2625
154,2013,6,26,9,12.185,62.3525,57.51,66.96,90.815,12.845,54.8075,73.6075,-0.5635,0.402,0,1.375,0,,11.3425,11.055,11.225
155,2013,6,26,10,13.46,59.145,54.02,63.94,181.55,24.35,112.6,157.375,-5.47025,0.48575,0,2,0,,11.4575,11.065,11.195
156,2013,6,26,11,13.1675,61.9125,55.96,67.82,88.715,13.485,53.915,69.735,-8.43875,0.49925,0,1.75,0,,11.69,11.1125,11.165
157,2013,6,26,12,12.48,64.1725,60.65,66.54,83.335,12.0925,48.56,66.6925,-6.241,0.39075,0,1.5,0,,11.83,11.2225,11.1725
158,2013,6,26,13,13.2875,61.1625,58.3,64.73,161.5,19.4,82.5075,128.875,-9.2225,0.5675,0,1.75,0,,11.9825,11.32,11.18
159,2013,6,26,14,13.5025,60.8925,57.77,64.2,113.1,14.6025,62.0425,99.025,-11.24,0.55475,0,1.5,0,,12.2,11.425,11.1975
160,2013,6,26,15,13.4275,58.5725,54.28,61.72,72.7,11.105,41.2525,75.5375,-9.0525,0.54025,0,1.5,0,,12.3475,11.5475,11.225
161,2013,6,26,16,13.3125,58.6025,56.22,62.05,80.6,12.605,47.8625,65.2675,-9.935,0.42375,0,1.875,0,,12.465,11.66,11.2675
162,2013,6,26,17,13.02,59.1975,56.16,63.13,58.2075,10.065,34.0675,43.4025,-8.51175,0.32325,0,1.375,0,,12.5825,11.7625,11.315
163,2013,6,26,18,12.3125,61.535,57.56,67.28,24.85,6.19875,15.165,6.08775,-4.78725,0.28075,0,1.25,0,,12.5925,11.8475,11.37
164,2013,6,26,19,12.01,66.2625,62.52,71,15.9575,5.193,10.32,-6.3485,-3.8175,0.0345,0,0.625,0,,12.5625,11.8925,11.42
165,2013,6,26,20,10.84,75.475,70.4,79.3,7.17325,4.187,5.2935,-10.565,-2.172,0.0195,0,0.625,0,,12.5075,11.9025,11.4575
166,2013,6,26,21,9.6475,81.425,79.1,84.1,3.965,3.965,3.965,-16.6525,0.3425,0.00175,0,0.125,0,,12.41,11.88,11.485
167,2013,6,26,22,9.1275,83.95,83.4,84.8,3.96575,3.96575,3.96575,-18.06,2.52675,0.03375,0,0.5,0,,12.2725,11.845,11.51
168,2013,6,26,23,8.395,85,83.8,86.1,3.966,3.966,3.966,-28.4325,5.03175,0.045,0,0.625,0,,12.12,11.785,11.5225
169,2013,6,27,0,7.42,87.575,85.9,89.1,3.966,3.966,3.966,-29.1275,8.045,0.0435,0,0.75,0,,11.9125,11.7,11.53
170,2013,6,27,1,6.96525,89.375,88.8,90.2,3.966,3.966,3.966,-26.675,9.7075,0.003,0,0.125,0,,11.6925,11.595,11.5225
171,2013,6,27,2,6.709,89.675,89.1,90.2,3.966,3.966,3.966,-21.535,9.9325,0.01175,0,0.25,0,,11.49,11.465,11.505
172,2013,6,27,3,6.673,89.25,88.9,89.7,6.63775,4.15675,5.10625,-18.8025,10.725,0.00525,0,0.375,0,,11.305,11.34,11.48
173,2013,6,27,4,6.98475,89.5,89.2,89.8,23.7725,5.89675,14.9475,0.285,9.7875,0.014,0,0.375,0,,11.14,11.215,11.445
174,2013,6,27,5,8.3075,87.525,83.9,89.3,45.3675,8.1075,27.44,24.3775,6.3775,0.00025,0,0.125,0,,11.0625,11.1075,11.4
175,2013,6,27,6,9.715,82.875,82,83.9,53.3275,9.0825,31.4375,38.195,3.65825,0.008,0,0.375,0,,11.0575,11.025,11.3525
176,2013,6,27,7,10.8,80.625,75.2,82.2,54.6875,9.2325,31.655,44.795,1.36525,0.0305,0,0.625,0,,11.0975,10.975,11.2975
177,2013,6,27,8,12.4325,75.2,71.1,77,76.465,11.54,45.835,65.0775,-1.83525,0.0215,0,0.375,0,,11.185,10.955,11.2475
178,2013,6,27,9,13.845,67.11,61.86,73.5,115.575,15.3225,68.795,104.7,-6.03925,0.02875,0,0.5,0,,11.33,10.9625,11.1975
179,2013,6,27,10,15.015,60.765,55.49,66.56,166.25,20.8225,97.95,144.65,-11.2425,0.10575,0,1,0,,11.56,11.01,11.165
180,2013,6,27,11,15.59,62.4075,59.24,65.4,172.175,22.005,104.675,154.425,-14.28,0.2185,0,1,0,,11.855,11.125,11.1575
181,2013,6,27,12,15.8825,64.71,61.05,68.42,108.185,14.575,64.5375,99.325,-15.325,0.18825,0,1,0,,12.19,11.29,11.16
182,2013,6,27,13,15.3075,68.5325,66.88,70.9,76.0725,11.175,44.34,69.92,-11.69,0.3215,0,1,0,,12.4025,11.475,11.185
183,2013,6,27,14,15.755,69.335,66.68,72.6,80.12,11.825,46.455,75.975,-13.36,0.107,0,0.75,0,,12.59,11.6325,11.2325
184,2013,6,27,15,15.8725,69.365,67.28,72.5,61.7925,9.8825,35.925,59.8825,-12.8775,0.12425,0,0.875,0,,12.77,11.78,11.29
185,2013,6,27,16,16.005,69.675,67.35,72.2,55.1125,9.02,32.4725,53.085,-13.515,0.09125,0,1.125,0,,12.94,11.92,11.35
186,2013,6,27,17,15.3075,75.475,70.8,79.1,38.08,7.3935,22.9975,19.61175,-12.23,0.1725,0,0.875,0,,13.085,12.06,11.42
187,2013,6,27,18,14.8925,81.3,77.4,84.1,18.9775,5.4055,11.9675,13.04,-11.1125,0.01575,0,0.375,0,,13.1875,12.185,11.4925
188,2013,6,27,19,14.5575,84.7,84,85.6,15.5625,5.13925,9.955,12.2025,-9.79,0,0,0,0,,13.25,12.285,11.5675
189,2013,6,27,20,14.32,85.625,85,86.5,5.46275,3.98875,4.41075,2.87425,-8.4175,0,0,0,0,,13.2875,12.3675,11.6375
190,2013,6,27,21,13.9375,86.975,86.2,87.9,3.965,3.965,3.965,-0.718,-7.01275,0,0,0,0,,13.2975,12.4275,11.705
191,2013,6,27,22,13.625,88.575,87.8,89.3,3.965,3.965,3.965,-1.1285,-6.00725,0,0,0,0,,13.285,12.4625,11.7675
192,2013,6,27,23,13.2925,89.95,89.1,90.3,3.965,3.965,3.965,-3.53225,-4.91175,0.0045,0,0.375,0,,13.26,12.485,11.815
193,2013,6,28,0,12.8475,89.525,89.1,90.1,3.965,3.965,3.965,-8.302,-3.23975,0.0035,0,0.25,0,,13.2125,12.4925,11.86
194,2013,6,28,1,12.4875,89.675,89.5,90.1,3.965,3.965,3.965,-5.158,-2.194,0,0,0,0,,13.14,12.485,11.8975
195,2013,6,28,2,12.35,91.175,89.9,91.9,3.965,3.965,3.965,-7.14425,-1.25825,0,0,0,0,,13.0675,12.46,11.925
196,2013,6,28,3,12.15,92.4,91.6,93,4.76875,3.965,3.98875,-5.675,-0.26,0.00025,0,0.125,0,,12.9825,12.425,11.945
197,2013,6,28,4,12.1425,93.025,92.7,93.3,8.86125,4.29175,6.36725,-1.3035,-0.20275,0,0,0,0,,12.905,12.39,11.965
198,2013,6,28,5,12.6625,93.625,93.1,94,13.33,4.771,9.1675,5.83625,-0.76775,0.00075,0,0.125,0.6,,12.855,12.3625,11.9775
199,2013,6,28,6,13.11,93.85,93.7,94,19.66,5.49775,12.8275,11.295,-1.67525,0,0,0,0.4,,12.8325,12.325,11.98
200,2013,6,28,7,13.185,93.925,93.8,94.2,26.945,6.11075,17.2875,17.625,-2.14075,0,0,0,1.4,,12.83,12.3,11.9725
201,2013,6,28,8,13.2525,93.95,93.5,94.2,38.6475,7.2395,24.34,24.17,-2.80475,0.07775,0,0.625,0.6,,12.8425,12.29,11.97
202,2013,6,28,9,13.1025,94.1,93.7,94.4,58.1075,8.95125,36.015,40.4225,-3.027,0.14825,0,0.625,0,,12.86,12.29,11.98
203,2013,6,28,10,13.52,93.225,92.3,94,64.48,9.6475,39.57,36.795,-4.7305,0.34425,0,0.875,0,,12.9175,12.305,11.98
204,2013,6,28,11,14.6525,87.05,81.4,92.6,131.15,16.51,82.6225,102.3075,-7.754,0.49025,0,1.375,0,,13.02,12.335,11.9875
205,2013,6,28,12,15.77,78.35,71.7,82.5,66.0775,10.14,40.6475,59.7925,-8.4575,0.3955,0,1.5,0,,13.185,12.4,11.995